,,,PA_Meas_PMT16A,,PR_Meas_QMR101_102,,RH_Meas_QMH101,,SR_Meas_QMS101,,TA_Meas_QMH101,,GenWind,,GenWind,
date,time,status,PA,status,PR,status,RH,status,SR,status,TA,status,DirAvg,status,SpdAvg,
2012-08-15, 00:00:04,VALID,1001.43,VALID,0,VALID,68.9412,VALID,0,VALID,23.4475,VALID,129,VALID,1.87969,
2012-08-15, 00:01:04,VALID,1001.4,VALID,0,VALID,65.9428,VALID,0,VALID,23.7384,VALID,166,VALID,1.71602,
2012-08-15, 00:02:04,VALID,1001.43,VALID,0,VALID,64.1422,VALID,0,VALID,24.111,VALID,144,VALID,1.66562,
2012-08-15, 00:03:04,VALID,1001.39,VALID,0,VALID,60.335,VALID,0,VALID,24.5013,VALID,148,VALID,2.57188,
2012-08-15, 00:04:04,VALID,1001.39,VALID,0,VALID,57.9393,VALID,0,VALID,24.9893,VALID,140,VALID,2.24219,
2012-08-15, 00:05:04,VALID,1001.42,VALID,0,VALID,56.6194,VALID,0,VALID,25.3778,VALID,143,VALID,1.7875,
2012-08-15, 00:06:04,VALID,1001.44,VALID,0,VALID,57.2679,VALID,0,VALID,25.5359,VALID,135,VALID,1.67031,
2012-08-15, 00:07:04,VALID,1001.45,VALID,0,VALID,61.2277,VALID,0,VALID,25.3993,VALID,91,VALID,0.982422,
2012-08-15, 00:08:04,VALID,1001.42,VALID,0,VALID,62.9825,VALID,0,VALID,24.9874,VALID,86,VALID,1.81094,
2012-08-15, 00:09:04,VALID,1001.39,VALID,0,VALID,62.6926,VALID,0,VALID,24.9503,VALID,68,VALID,1.30156,
2012-08-15, 00:10:04,VALID,1001.46,VALID,0,VALID,62.7155,VALID,0,VALID,24.8136,VALID,137,VALID,1.10156,
2012-08-15, 00:11:04,VALID,1001.46,VALID,0,VALID,64.4169,VALID,0,VALID,24.6575,VALID,77,VALID,1.43164,
2012-08-15, 00:12:04,VALID,1001.44,VALID,0,VALID,63.9057,VALID,0,VALID,24.5013,VALID,122,VALID,1.64023,
2012-08-15, 00:13:04,VALID,1001.44,VALID,0,VALID,65.1798,VALID,0,VALID,24.4428,VALID,109,VALID,1.04414,
2012-08-15, 00:14:04,VALID,1001.41,VALID,0,VALID,69.7271,VALID,0,VALID,24.2476,VALID,51,VALID,1.31719,
2012-08-15, 00:15:04,VALID,1001.35,VALID,0,VALID,71.3293,VALID,0,VALID,23.8963,VALID,360,VALID,1.25703,
2012-08-15, 00:16:04,VALID,1001.33,VALID,0,VALID,72.3059,VALID,0,VALID,23.5646,VALID,348,VALID,1.23984,
2012-08-15, 00:17:04,VALID,1001.26,VALID,0,VALID,73.0155,VALID,0,VALID,23.35,VALID,350,VALID,1.31758,
2012-08-15, 00:18:04,VALID,1001.38,VALID,0,VALID,73.252,VALID,0,VALID,23.2329,VALID,246,VALID,0.721875,
2012-08-15, 00:19:04,VALID,1001.32,VALID,0,VALID,71.9702,VALID,0,VALID,23.1159,VALID,197,VALID,0.333594,
2012-08-15, 00:20:04,VALID,1001.25,VALID,0,VALID,72.2601,VALID,0,VALID,23.1159,VALID,311,VALID,0.987109,
2012-08-15, 00:21:04,VALID,1001.23,VALID,0,VALID,72.2601,VALID,0,VALID,23.1549,VALID,315,VALID,0.992188,
2012-08-15, 00:22:04,VALID,1001.26,VALID,0,VALID,71.6192,VALID,0,VALID,23.1549,VALID,315,VALID,0.513672,
2012-08-15, 00:23:04,VALID,1001.33,VALID,0,VALID,70.6579,VALID,0,VALID,23.1744,VALID,315,VALID,0.209766,
2012-08-15, 00:24:04,VALID,1001.24,VALID,0,VALID,68.575,VALID,0,VALID,23.2329,VALID,312,VALID,0.873828,
2012-08-15, 00:25:04,VALID,1001.21,VALID,0,VALID,67.2093,VALID,0,VALID,23.4671,VALID,34,VALID,0.746094,
2012-08-15, 00:26:04,VALID,1001.27,VALID,0,VALID,65.5842,VALID,0,VALID,23.7012,VALID,148,VALID,0.659375,
2012-08-15, 00:27:04,VALID,1001.13,VALID,0,VALID,60.9225,VALID,0,VALID,24.4251,VALID,202,VALID,2.27813,
2012-08-15, 00:28:04,VALID,1001.14,VALID,0,VALID,58.0919,VALID,0,VALID,25.1064,VALID,146,VALID,3.0418,
2012-08-15, 00:29:04,VALID,1001.11,VALID,0,VALID,54.8875,VALID,0,VALID,25.4774,VALID,185,VALID,3.29453,
2012-08-15, 00:30:04,VALID,1001.09,VALID,0,VALID,53.3845,VALID,0,VALID,25.946,VALID,178,VALID,1.96211,
2012-08-15, 00:31:04,VALID,1001.06,VALID,0,VALID,52.4155,VALID,0,VALID,26.2389,VALID,187,VALID,2.10234,
2012-08-15, 00:32:04,VALID,1001.05,VALID,0,VALID,51.6754,VALID,0,VALID,26.3756,VALID,202,VALID,2.34258,
2012-08-15, 00:33:04,VALID,1001.02,VALID,0,VALID,51.3321,VALID,0,VALID,26.5513,VALID,176,VALID,2.05547,
2012-08-15, 00:34:04,VALID,1001.05,VALID,0,VALID,52.1179,VALID,0,VALID,26.5513,VALID,156,VALID,3.34219,
2012-08-15, 00:35:04,VALID,1001.05,VALID,0,VALID,51.1337,VALID,0,VALID,26.5708,VALID,155,VALID,2.74961,
2012-08-15, 00:36:04,VALID,1001.04,VALID,0,VALID,50.4394,VALID,0,VALID,26.5904,VALID,168,VALID,4.52422,
2012-08-15, 00:37:04,VALID,1001,VALID,0,VALID,50.9125,VALID,0,VALID,26.7251,VALID,165,VALID,3.90781,
2012-08-15, 00:38:04,VALID,1001.06,VALID,0,VALID,53.7583,VALID,0,VALID,26.4341,VALID,126,VALID,2.1707,
2012-08-15, 00:39:04,VALID,1001.04,VALID,0,VALID,54.6357,VALID,0,VALID,26.0241,VALID,141,VALID,2.14609,
2012-08-15, 00:40:04,VALID,1001.03,VALID,0,VALID,54.918,VALID,0,VALID,25.9069,VALID,143,VALID,3.45,
2012-08-15, 00:41:04,VALID,1000.99,VALID,0,VALID,55.3682,VALID,0,VALID,25.7702,VALID,143,VALID,2.19922,
2012-08-15, 00:42:04,VALID,1001.01,VALID,0,VALID,55.9099,VALID,0,VALID,25.7507,VALID,133,VALID,2.97578,
2012-08-15, 00:43:04,VALID,1001.02,VALID,0,VALID,56.5431,VALID,0,VALID,25.6726,VALID,151,VALID,2.41797,
2012-08-15, 00:44:04,VALID,1001.05,VALID,0,VALID,56.6804,VALID,0,VALID,25.575,VALID,145,VALID,2.8832,
2012-08-15, 00:45:04,VALID,1001.05,VALID,0,VALID,60.0985,VALID,0,VALID,25.4578,VALID,121,VALID,2.16133,
2012-08-15, 00:46:04,VALID,1001.04,VALID,0,VALID,58.9159,VALID,0,VALID,25.2626,VALID,145,VALID,2.46172,
2012-08-15, 00:47:04,VALID,1001.05,VALID,0,VALID,61.7236,VALID,0,VALID,25.0479,VALID,118,VALID,1.4043,
2012-08-15, 00:48:04,VALID,1000.99,VALID,0,VALID,61.8839,VALID,0,VALID,24.7337,VALID,168,VALID,2.02227,
2012-08-15, 00:49:04,VALID,1000.96,VALID,0,VALID,63.776,VALID,0,VALID,24.5989,VALID,125,VALID,1.58281,
2012-08-15, 00:50:04,VALID,1000.95,VALID,0,VALID,66.1107,VALID,0,VALID,24.3842,VALID,104,VALID,1.32617,
2012-08-15, 00:51:04,VALID,1000.95,VALID,0,VALID,64.8975,VALID,0,VALID,24.0701,VALID,130,VALID,2.1793,
2012-08-15, 00:52:04,VALID,1000.91,VALID,0,VALID,65.897,VALID,0,VALID,24.0329,VALID,119,VALID,1.51758,
2012-08-15, 00:53:04,VALID,1000.88,VALID,0,VALID,67.69,VALID,0,VALID,23.8573,VALID,119,VALID,1.75156,
2012-08-15, 00:54:04,VALID,1000.84,VALID,0,VALID,68.659,VALID,0,VALID,23.5841,VALID,123,VALID,1.87109,
2012-08-15, 00:55:04,VALID,1000.92,VALID,0,VALID,69.7118,VALID,0,VALID,23.3695,VALID,134,VALID,1.91289,
2012-08-15, 00:56:04,VALID,1000.93,VALID,0,VALID,70.78,VALID,0,VALID,23.1744,VALID,122,VALID,1.40625,
2012-08-15, 00:57:04,VALID,1000.93,VALID,0,VALID,71.6955,VALID,0,VALID,22.9793,VALID,134,VALID,1.3168,
2012-08-15, 00:58:04,VALID,1000.9,VALID,0,VALID,72.6645,VALID,0,VALID,22.8427,VALID,138,VALID,1.82773,
2012-08-15, 00:59:04,VALID,1000.91,VALID,0,VALID,73.1833,VALID,0,VALID,22.7045,VALID,127,VALID,1.43945,
2012-08-15, 01:00:04,VALID,1000.89,VALID,0,VALID,73.8471,VALID,0,VALID,22.6282,VALID,108,VALID,1.13555,
2012-08-15, 01:01:04,VALID,1000.89,VALID,0,VALID,73.9921,VALID,0,VALID,22.5306,VALID,110,VALID,1.0375,
2012-08-15, 01:02:04,VALID,1000.87,VALID,0,VALID,74.2744,VALID,0,VALID,22.4526,VALID,110,VALID,0.24375,
2012-08-15, 01:03:04,VALID,1000.89,VALID,0,VALID,74.4422,VALID,0,VALID,22.3534,VALID,160,VALID,1.2793,
2012-08-15, 01:04:04,VALID,1000.8,VALID,0,VALID,74.6253,VALID,0,VALID,22.3356,VALID,130,VALID,0.803516,
2012-08-15, 01:05:04,VALID,1000.79,VALID,0,VALID,75.3044,VALID,0,VALID,22.2966,VALID,93,VALID,1.29766,
2012-08-15, 01:06:04,VALID,1000.77,VALID,0,VALID,75.9529,VALID,0,VALID,22.2576,VALID,96,VALID,1.05469,
2012-08-15, 01:07:04,VALID,1000.8,VALID,0,VALID,76.1131,VALID,0,VALID,22.2186,VALID,96,VALID,0.350781,
2012-08-15, 01:08:04,VALID,1000.83,VALID,0,VALID,76.3191,VALID,0,VALID,22.1405,VALID,96,VALID,0.253906,
2012-08-15, 01:09:04,VALID,1000.85,VALID,0,VALID,76.8532,VALID,0,VALID,22.1015,VALID,96,VALID,0.201172,
2012-08-15, 01:10:04,VALID,1000.83,VALID,0,VALID,77.0897,VALID,0,VALID,22.0218,VALID,96,VALID,0.30625,
2012-08-15, 01:11:04,VALID,1000.82,VALID,0,VALID,76.9752,VALID,0,VALID,22.004,VALID,326,VALID,0.824219,
2012-08-15, 01:12:04,VALID,1000.79,VALID,0,VALID,76.9066,VALID,0,VALID,21.9845,VALID,326,VALID,1.11484,
2012-08-15, 01:13:04,VALID,1000.9,VALID,0,VALID,76.754,VALID,0,VALID,21.9845,VALID,260,VALID,0.842578,
2012-08-15, 01:14:04,VALID,1000.84,VALID,0,VALID,76.3878,VALID,0,VALID,22.004,VALID,283,VALID,0.86875,
2012-08-15, 01:15:04,VALID,1000.79,VALID,0,VALID,75.5638,VALID,0,VALID,22.0413,VALID,331,VALID,0.988672,
2012-08-15, 01:16:04,VALID,1000.8,VALID,0,VALID,75.3349,VALID,0,VALID,22.16,VALID,336,VALID,1.00117,
2012-08-15, 01:17:04,VALID,1000.79,VALID,0,VALID,75.5027,VALID,0,VALID,22.16,VALID,341,VALID,1.16953,
2012-08-15, 01:18:04,VALID,1000.87,VALID,0,VALID,75.8003,VALID,0,VALID,22.1015,VALID,341,VALID,0.414844,
2012-08-15, 01:19:04,VALID,1000.85,VALID,0,VALID,75.8461,VALID,0,VALID,22.0625,VALID,341,VALID,0.0726563,
2012-08-15, 01:20:04,VALID,1000.81,VALID,0,VALID,76.2962,VALID,0,VALID,22.004,VALID,341,VALID,0.711719,
2012-08-15, 01:21:04,VALID,1000.78,VALID,0,VALID,76.3115,VALID,0,VALID,22.004,VALID,351,VALID,1.19023,
2012-08-15, 01:22:04,VALID,1000.79,VALID,0,VALID,76.4869,VALID,0,VALID,22.0413,VALID,357,VALID,1.00898,
2012-08-15, 01:23:04,VALID,1000.77,VALID,0,VALID,76.6777,VALID,0,VALID,22.0608,VALID,4,VALID,1.03867,
2012-08-15, 01:24:04,VALID,1000.78,VALID,0,VALID,76.7006,VALID,0,VALID,22.004,VALID,16,VALID,1.05586,
2012-08-15, 01:25:04,VALID,1000.82,VALID,0,VALID,77.372,VALID,0,VALID,21.848,VALID,16,VALID,0.749219,
2012-08-15, 01:26:04,VALID,1000.8,VALID,0,VALID,78.5927,VALID,0,VALID,21.653,VALID,63,VALID,1.275,
2012-08-15, 01:27:04,VALID,1000.79,VALID,0,VALID,79.493,VALID,0,VALID,21.5538,VALID,15,VALID,1.07891,
2012-08-15, 01:28:04,VALID,1000.76,VALID,0,VALID,79.3175,VALID,0,VALID,21.5945,VALID,360,VALID,1.16406,
2012-08-15, 01:29:04,VALID,1000.77,VALID,0,VALID,79.4091,VALID,0,VALID,21.6335,VALID,340,VALID,0.721094,
2012-08-15, 01:30:04,VALID,1000.74,VALID,0,VALID,79.3404,VALID,0,VALID,21.6335,VALID,303,VALID,0.985547,
2012-08-15, 01:31:04,VALID,1000.76,VALID,0,VALID,79.3404,VALID,0,VALID,21.614,VALID,303,VALID,1.03633,
2012-08-15, 01:32:04,VALID,1000.78,VALID,0,VALID,78.4859,VALID,0,VALID,21.6123,VALID,303,VALID,0.728516,
2012-08-15, 01:33:04,VALID,1000.75,VALID,0,VALID,78.1578,VALID,0,VALID,21.6903,VALID,292,VALID,1.05508,
2012-08-15, 01:34:04,VALID,1000.74,VALID,0,VALID,72.5806,VALID,0,VALID,22.2576,VALID,309,VALID,1.45039,
2012-08-15, 01:35:04,VALID,1000.73,VALID,0,VALID,72.4814,VALID,0,VALID,22.5892,VALID,338,VALID,0.798828,
2012-08-15, 01:36:04,VALID,1000.7,VALID,0,VALID,73.725,VALID,0,VALID,22.6282,VALID,60,VALID,1.07695,
2012-08-15, 01:37:04,VALID,1000.7,VALID,0,VALID,76.5938,VALID,0,VALID,22.3551,VALID,55,VALID,2.11172,
2012-08-15, 01:38:04,VALID,1000.67,VALID,0,VALID,78.4783,VALID,0,VALID,21.965,VALID,60,VALID,2.57578,
2012-08-15, 01:39:04,VALID,1000.62,VALID,0,VALID,79.0658,VALID,0,VALID,21.7895,VALID,58,VALID,1.82148,
2012-08-15, 01:40:04,VALID,1000.63,VALID,0,VALID,79.6609,VALID,0,VALID,21.6725,VALID,66,VALID,1.45,
2012-08-15, 01:41:04,VALID,1000.6,VALID,0,VALID,79.8135,VALID,0,VALID,21.5945,VALID,41,VALID,1.43164,
2012-08-15, 01:42:04,VALID,1000.62,VALID,0,VALID,80.1415,VALID,0,VALID,21.5961,VALID,41,VALID,0.360156,
2012-08-15, 01:43:04,VALID,1000.6,VALID,0,VALID,80.3246,VALID,0,VALID,21.536,VALID,15,VALID,0.330078,
2012-08-15, 01:44:04,VALID,1000.58,VALID,0,VALID,80.8358,VALID,0,VALID,21.497,VALID,8,VALID,0.7875,
2012-08-15, 01:45:04,VALID,1000.58,VALID,0,VALID,81.0037,VALID,0,VALID,21.419,VALID,13,VALID,1.15352,
2012-08-15, 01:46:04,VALID,1000.59,VALID,0,VALID,81.3241,VALID,0,VALID,21.38,VALID,30,VALID,1.25703,
2012-08-15, 01:47:04,VALID,1000.62,VALID,0,VALID,81.0723,VALID,0,VALID,21.3215,VALID,83,VALID,0.737109,
2012-08-15, 01:48:04,VALID,1000.65,VALID,0,VALID,81.9574,VALID,0,VALID,21.2045,VALID,86,VALID,1.57305,
2012-08-15, 01:49:04,VALID,1000.66,VALID,0,VALID,82.1634,VALID,0,VALID,21.1265,VALID,90,VALID,0.650781,
2012-08-15, 01:50:04,VALID,1000.62,VALID,0,VALID,82.2626,VALID,0,VALID,21.107,VALID,101,VALID,0.355469,
2012-08-15, 01:51:04,VALID,1000.58,VALID,0,VALID,82.4457,VALID,0,VALID,21.068,VALID,101,VALID,0.216797,
2012-08-15, 01:52:04,VALID,1000.54,VALID,0,VALID,82.5983,VALID,0,VALID,21.068,VALID,101,VALID,0.276172,
2012-08-15, 01:53:04,VALID,1000.51,VALID,0,VALID,82.6364,VALID,0,VALID,21.068,VALID,98,VALID,0.0980469,
2012-08-15, 01:54:04,VALID,1000.55,VALID,0,VALID,82.7127,VALID,0,VALID,21.0875,VALID,100,VALID,0.578906,
2012-08-15, 01:55:04,VALID,1000.56,VALID,0,VALID,83.1476,VALID,0,VALID,21.146,VALID,131,VALID,1.56445,
2012-08-15, 01:56:04,VALID,1000.52,VALID,0,VALID,83.1934,VALID,0,VALID,21.1054,VALID,138,VALID,1.03047,
2012-08-15, 01:57:04,VALID,1000.52,VALID,0,VALID,83.201,VALID,0,VALID,21.1265,VALID,163,VALID,0.738672,
2012-08-15, 01:58:04,VALID,1000.48,VALID,0,VALID,83.0942,VALID,0,VALID,21.1655,VALID,163,VALID,0.41875,
2012-08-15, 01:59:04,VALID,1000.53,VALID,0,VALID,82.7203,VALID,0,VALID,21.185,VALID,161,VALID,0.641797,
2012-08-15, 02:00:04,VALID,1000.52,VALID,0,VALID,82.1786,VALID,0,VALID,21.2045,VALID,131,VALID,1.81797,
2012-08-15, 02:01:04,VALID,1000.52,VALID,0,VALID,82.316,VALID,0,VALID,21.2045,VALID,133,VALID,1.12852,
2012-08-15, 02:02:04,VALID,1000.51,VALID,0,VALID,82.7127,VALID,0,VALID,21.2451,VALID,141,VALID,1.75664,
2012-08-15, 02:03:04,VALID,1000.47,VALID,0,VALID,82.789,VALID,0,VALID,21.263,VALID,148,VALID,0.896484,
2012-08-15, 02:04:04,VALID,1000.47,VALID,0,VALID,82.7051,VALID,0,VALID,21.2825,VALID,149,VALID,0.265625,
2012-08-15, 02:05:04,VALID,1000.44,VALID,0,VALID,82.6974,VALID,0,VALID,21.3215,VALID,149,VALID,0.213672,
2012-08-15, 02:06:04,VALID,1000.47,VALID,0,VALID,82.6593,VALID,0,VALID,21.3426,VALID,149,VALID,0.378125,
2012-08-15, 02:07:04,VALID,1000.49,VALID,0,VALID,82.4838,VALID,0,VALID,21.3621,VALID,148,VALID,0.617578,
2012-08-15, 02:08:04,VALID,1000.47,VALID,0,VALID,82.377,VALID,0,VALID,21.3621,VALID,144,VALID,0.801953,
2012-08-15, 02:09:04,VALID,1000.51,VALID,0,VALID,82.3236,VALID,0,VALID,21.4011,VALID,140,VALID,1.17969,
2012-08-15, 02:10:04,VALID,1000.46,VALID,0,VALID,82.1557,VALID,0,VALID,21.4011,VALID,140,VALID,0.346094,
2012-08-15, 02:11:04,VALID,1000.44,VALID,0,VALID,82.1329,VALID,0,VALID,21.4011,VALID,140,VALID,0.369531,
2012-08-15, 02:12:04,VALID,1000.36,VALID,0,VALID,82.1405,VALID,0,VALID,21.4206,VALID,140,VALID,0.125,
2012-08-15, 02:13:04,VALID,1000.34,VALID,0,VALID,82.026,VALID,0,VALID,21.4011,VALID,140,VALID,0.4125,
2012-08-15, 02:14:04,VALID,1000.3,VALID,0,VALID,82.0337,VALID,0,VALID,21.4206,VALID,126,VALID,0.522656,
2012-08-15, 02:15:04,VALID,1000.33,VALID,0,VALID,81.8887,VALID,0,VALID,21.4206,VALID,116,VALID,1.01406,
2012-08-15, 02:16:04,VALID,1000.33,VALID,0,VALID,82.0032,VALID,0,VALID,21.4401,VALID,105,VALID,0.895312,
2012-08-15, 02:17:04,VALID,1000.31,VALID,0,VALID,81.8811,VALID,0,VALID,21.4206,VALID,106,VALID,0.571094,
2012-08-15, 02:18:04,VALID,1000.32,VALID,0,VALID,82.171,VALID,0,VALID,21.3816,VALID,106,VALID,0.502344,
2012-08-15, 02:19:04,VALID,1000.2,VALID,0,VALID,82.4609,VALID,0,VALID,21.3621,VALID,42,VALID,0.924219,
2012-08-15, 02:20:04,VALID,1000.24,VALID,0,VALID,82.5906,VALID,0,VALID,21.3426,VALID,27,VALID,0.242578,
2012-08-15, 02:21:04,VALID,1000.22,VALID,0,VALID,82.7738,VALID,0,VALID,21.302,VALID,27,VALID,0.334375,
2012-08-15, 02:22:04,VALID,1000.21,VALID,0,VALID,83.3383,VALID,0,VALID,21.3036,VALID,49,VALID,0.640625,
2012-08-15, 02:23:04,VALID,1000.22,VALID,0,VALID,83.4375,VALID,0,VALID,21.2256,VALID,49,VALID,0.369141,
2012-08-15, 02:24:04,VALID,1000.2,VALID,0,VALID,83.14,VALID,0,VALID,21.1265,VALID,18,VALID,0.764063,
2012-08-15, 02:25:04,VALID,1000.17,VALID,0,VALID,83.346,VALID,0,VALID,21.0111,VALID,18,VALID,1.45078,
2012-08-15, 02:26:04,VALID,1000.19,VALID,0,VALID,83.819,VALID,0,VALID,20.8941,VALID,40,VALID,1.14766,
2012-08-15, 02:27:04,VALID,1000.21,VALID,0,VALID,84.498,VALID,0,VALID,20.7966,VALID,23,VALID,0.694141,
2012-08-15, 02:28:04,VALID,1000.25,VALID,0,VALID,84.9024,VALID,0,VALID,20.7576,VALID,23,VALID,0.485938,
2012-08-15, 02:29:04,VALID,1000.24,VALID,0,VALID,85.1313,VALID,0,VALID,20.7381,VALID,23,VALID,0.436328,
2012-08-15, 02:30:04,VALID,1000.22,VALID,0,VALID,85.2992,VALID,0,VALID,20.7186,VALID,23,VALID,0.638672,
2012-08-15, 02:31:04,VALID,1000.24,VALID,0,VALID,85.3755,VALID,0,VALID,20.7186,VALID,20,VALID,0.921094,
2012-08-15, 02:32:04,VALID,1000.23,VALID,0,VALID,86.024,VALID,0,VALID,20.6991,VALID,360,VALID,1.30703,
2012-08-15, 02:33:04,VALID,1000.27,VALID,0,VALID,87.2676,VALID,0,VALID,20.6796,VALID,14,VALID,0.554297,
2012-08-15, 02:34:04,VALID,1000.26,VALID,0,VALID,87.794,VALID,0,VALID,20.6601,VALID,28,VALID,0.221875,
2012-08-15, 02:35:04,VALID,1000.25,VALID,0,VALID,88.1603,VALID,0,VALID,20.6406,VALID,28,VALID,0.00507812,
2012-08-15, 02:36:04,VALID,1000.24,VALID,0,VALID,88.4349,VALID,0,VALID,20.6211,VALID,28,VALID,0.294922,
2012-08-15, 02:37:04,VALID,1000.26,VALID,0,VALID,88.7706,VALID,0,VALID,20.6406,VALID,29,VALID,0.166016,
2012-08-15, 02:38:04,VALID,1000.24,VALID,0,VALID,89.2284,VALID,0,VALID,20.6406,VALID,63,VALID,0.742188,
2012-08-15, 02:39:04,VALID,1000.21,VALID,0,VALID,89.4191,VALID,0,VALID,20.6211,VALID,60,VALID,0.236719,
2012-08-15, 02:40:04,VALID,1000.16,VALID,0,VALID,89.6175,VALID,0,VALID,20.6016,VALID,60,VALID,0.427344,
2012-08-15, 02:41:04,VALID,1000.14,VALID,0,VALID,89.732,VALID,0,VALID,20.6211,VALID,60,VALID,0.213672,
2012-08-15, 02:42:04,VALID,1000.13,VALID,0,VALID,89.854,VALID,0,VALID,20.6211,VALID,120,VALID,0.988281,
2012-08-15, 02:43:04,VALID,1000.09,VALID,0,VALID,89.9074,VALID,0,VALID,20.6796,VALID,120,VALID,0.346484,
2012-08-15, 02:44:04,VALID,1000.08,VALID,0,VALID,89.6175,VALID,0,VALID,20.7186,VALID,120,VALID,0.00585938,
2012-08-15, 02:45:04,VALID,1000.02,VALID,0,VALID,89.4726,VALID,0,VALID,20.7366,VALID,120,VALID,0.228125,
2012-08-15, 02:46:04,VALID,1000.02,VALID,0,VALID,89.1979,VALID,0,VALID,20.8161,VALID,120,VALID,0.311328,
2012-08-15, 02:47:04,VALID,1000,VALID,0,VALID,88.8164,VALID,0,VALID,20.8551,VALID,120,VALID,0.551953,
2012-08-15, 02:48:04,VALID,999.973,VALID,0,VALID,88.3739,VALID,0,VALID,20.8941,VALID,120,VALID,0,
2012-08-15, 02:49:04,VALID,999.995,VALID,0,VALID,88.0611,VALID,0,VALID,20.9331,VALID,120,VALID,0.08125,
2012-08-15, 02:50:04,VALID,999.945,VALID,0,VALID,87.8246,VALID,0,VALID,20.9721,VALID,120,VALID,0.271094,
2012-08-15, 02:51:04,VALID,999.897,VALID,0,VALID,87.5117,VALID,0,VALID,21.0111,VALID,120,VALID,0.253516,
2012-08-15, 02:52:04,VALID,999.949,VALID,0,VALID,87.1837,VALID,0,VALID,21.0111,VALID,120,VALID,0.596094,
2012-08-15, 02:53:04,VALID,999.932,VALID,0,VALID,86.9243,VALID,0,VALID,21.0306,VALID,97,VALID,1.08359,
2012-08-15, 02:54:04,VALID,999.948,VALID,0,VALID,86.23,VALID,0,VALID,21.0891,VALID,98,VALID,0.902344,
2012-08-15, 02:55:05,VALID,999.915,VALID,0,VALID,86.1918,VALID,0,VALID,21.1086,VALID,88,VALID,0.766406,
2012-08-15, 02:56:05,VALID,999.913,VALID,0,VALID,86.3978,VALID,0,VALID,21.1281,VALID,86,VALID,0.683594,
2012-08-15, 02:57:05,VALID,999.927,VALID,0,VALID,86.6496,VALID,0,VALID,21.1086,VALID,83,VALID,1.46094,
2012-08-15, 02:58:05,VALID,999.927,VALID,0,VALID,87.3363,VALID,0,VALID,21.0891,VALID,100,VALID,2.10898,
2012-08-15, 02:59:05,VALID,999.94,VALID,0,VALID,87.7711,VALID,0,VALID,21.0696,VALID,98,VALID,1.31562,
2012-08-15, 03:00:05,VALID,999.982,VALID,0,VALID,87.5499,VALID,0,VALID,21.0891,VALID,106,VALID,1.79883,
2012-08-15, 03:01:05,VALID,999.955,VALID,0,VALID,87.1303,VALID,0,VALID,21.1281,VALID,102,VALID,2.18242,
2012-08-15, 03:02:05,VALID,999.993,VALID,0,VALID,85.7646,VALID,0,VALID,21.1866,VALID,107,VALID,1.67656,
2012-08-15, 03:03:05,VALID,999.988,VALID,0,VALID,83.3307,VALID,0,VALID,21.3036,VALID,128,VALID,1.99141,
2012-08-15, 03:04:05,VALID,1000,VALID,0,VALID,79.1955,VALID,0,VALID,21.7326,VALID,138,VALID,2.36055,
2012-08-15, 03:05:05,VALID,1000,VALID,0,VALID,79.0658,VALID,0,VALID,21.8887,VALID,113,VALID,1.45859,
2012-08-15, 03:06:05,VALID,999.976,VALID,0,VALID,78.9895,VALID,0,VALID,21.8301,VALID,104,VALID,1.4332,
2012-08-15, 03:07:05,VALID,1000.03,VALID,0,VALID,79.0658,VALID,0,VALID,21.7911,VALID,110,VALID,1.70234,
2012-08-15, 03:08:05,VALID,1000.05,VALID,0,VALID,78.8979,VALID,0,VALID,21.7521,VALID,109,VALID,1.74883,
2012-08-15, 03:09:05,VALID,1000.04,VALID,0,VALID,78.7606,VALID,0,VALID,21.7131,VALID,97,VALID,1.04453,
2012-08-15, 03:10:05,VALID,1000.04,VALID,0,VALID,79.4549,VALID,0,VALID,21.692,VALID,102,VALID,0.421094,
2012-08-15, 03:11:05,VALID,1000.11,VALID,0,VALID,79.76,VALID,0,VALID,21.6725,VALID,102,VALID,0.148047,
2012-08-15, 03:12:05,VALID,1000.11,VALID,0,VALID,79.0047,VALID,0,VALID,21.6351,VALID,119,VALID,0.476172,
2012-08-15, 03:13:05,VALID,1000.15,VALID,0,VALID,78.5088,VALID,0,VALID,21.6351,VALID,120,VALID,0.162891,
2012-08-15, 03:14:05,VALID,1000.19,VALID,0,VALID,78.1426,VALID,0,VALID,21.6546,VALID,120,VALID,0.242578,
2012-08-15, 03:15:05,VALID,1000.17,VALID,0,VALID,79.2489,VALID,0,VALID,21.6741,VALID,65,VALID,0.633203,
2012-08-15, 03:16:05,VALID,1000.16,VALID,0,VALID,79.5769,VALID,0,VALID,21.6351,VALID,358,VALID,1.31758,
2012-08-15, 03:17:05,VALID,1000.19,VALID,0,VALID,80.2712,VALID,0,VALID,21.5766,VALID,1,VALID,0.942187,
2012-08-15, 03:18:05,VALID,1000.19,VALID,0,VALID,80.8435,VALID,0,VALID,21.5181,VALID,1,VALID,0.592188,
2012-08-15, 03:19:05,VALID,1000.16,VALID,0,VALID,81.4615,VALID,0,VALID,21.4596,VALID,360,VALID,0.889844,
2012-08-15, 03:20:05,VALID,1000.19,VALID,0,VALID,81.1334,VALID,0,VALID,21.4011,VALID,14,VALID,0.951953,
2012-08-15, 03:21:05,VALID,1000.13,VALID,0,VALID,81.0723,VALID,0,VALID,21.3621,VALID,18,VALID,0.685938,
2012-08-15, 03:22:05,VALID,1000.14,VALID,0,VALID,80.9732,VALID,0,VALID,21.3621,VALID,18,VALID,0.539844,
2012-08-15, 03:23:05,VALID,1000.16,VALID,0,VALID,80.7977,VALID,0,VALID,21.3816,VALID,24,VALID,0.636328,
2012-08-15, 03:24:05,VALID,1000.13,VALID,0,VALID,80.4543,VALID,0,VALID,21.3816,VALID,24,VALID,0.465234,
2012-08-15, 03:25:05,VALID,1000.09,VALID,0,VALID,80.4009,VALID,0,VALID,21.38,VALID,24,VALID,0.451172,
2012-08-15, 03:26:05,VALID,1000.08,VALID,0,VALID,80.3704,VALID,0,VALID,21.4011,VALID,24,VALID,0.132422,
2012-08-15, 03:27:05,VALID,1000.06,VALID,0,VALID,80.256,VALID,0,VALID,21.3995,VALID,24,VALID,0.461328,
2012-08-15, 03:28:05,VALID,1000.04,VALID,0,VALID,80.2407,VALID,0,VALID,21.4401,VALID,24,VALID,0.391797,
2012-08-15, 03:29:05,VALID,1000.01,VALID,0,VALID,80.3323,VALID,0,VALID,21.4206,VALID,24,VALID,0.162109,
2012-08-15, 03:30:05,VALID,999.963,VALID,0,VALID,80.5917,VALID,0,VALID,21.4011,VALID,24,VALID,0.682031,
2012-08-15, 03:31:05,VALID,999.96,VALID,0,VALID,80.4238,VALID,0,VALID,21.38,VALID,24,VALID,0.0683594,
2012-08-15, 03:32:05,VALID,999.987,VALID,0,VALID,80.6222,VALID,0,VALID,21.4011,VALID,301,VALID,0.511719,
2012-08-15, 03:33:05,VALID,999.984,VALID,0,VALID,80.6222,VALID,0,VALID,21.3816,VALID,301,VALID,0.197266,
2012-08-15, 03:34:05,VALID,1000.01,VALID,0,VALID,80.7138,VALID,0,VALID,21.3426,VALID,105,VALID,1.43477,
2012-08-15, 03:35:05,VALID,1000.03,VALID,0,VALID,80.9426,VALID,0,VALID,21.3036,VALID,113,VALID,1.22617,
2012-08-15, 03:36:05,VALID,1000.03,VALID,0,VALID,80.6146,VALID,0,VALID,21.3621,VALID,113,VALID,0.684766,
2012-08-15, 03:37:05,VALID,999.968,VALID,0,VALID,80.1415,VALID,0,VALID,21.4011,VALID,115,VALID,0.369141,
2012-08-15, 03:38:05,VALID,999.904,VALID,0,VALID,79.5998,VALID,0,VALID,21.4011,VALID,260,VALID,0.955859,
2012-08-15, 03:39:05,VALID,999.879,VALID,0,VALID,80.05,VALID,0,VALID,21.4596,VALID,283,VALID,0.922266,
2012-08-15, 03:40:05,VALID,999.91,VALID,0,VALID,79.3328,VALID,0,VALID,21.4986,VALID,284,VALID,1.14805,
2012-08-15, 03:41:05,VALID,999.906,VALID,0,VALID,78.4706,VALID,0,VALID,21.5571,VALID,266,VALID,0.962891,
2012-08-15, 03:42:05,VALID,999.979,VALID,0,VALID,78.2265,VALID,0,VALID,21.6546,VALID,248,VALID,0.544141,
2012-08-15, 03:43:05,VALID,999.912,VALID,0,VALID,73.0841,VALID,0,VALID,21.9667,VALID,212,VALID,2.20508,
2012-08-15, 03:44:05,VALID,999.916,VALID,0,VALID,73.7403,VALID,0,VALID,22.3568,VALID,258,VALID,0.521875,
2012-08-15, 03:45:05,VALID,999.901,VALID,0,VALID,74.0531,VALID,0,VALID,22.3958,VALID,273,VALID,0.482422,
2012-08-15, 03:46:05,VALID,999.86,VALID,0,VALID,75.3272,VALID,0,VALID,22.3178,VALID,327,VALID,0.864453,